User: anonymous   Login
Location: Unspecified
(0.0000°N, 0.0000°E)
Time: 06:18:48
(UTC+02:00)
Language:

Cosmos 2251 - Orbit

View from above orbital plane
View from above orbital plane
View from above satellite
View from above satellite

Ground track
Ground track

The orbit data is extracted from the following two-line orbital elements,

1 22675U 93036A   17146.56810883 +.00000003 +00000-0 +10497-4 0  9999
2 22675 074.0398 255.5555 0024793 017.4031 342.7963 14.32499155250642
Epoch (UTC): 26 May 2017 13:38:04
Eccentricity: 0.0024793
inclination: 74.0398°
perigee height: 765 km
apogee height: 801 km
right ascension of ascending node: 255.5555°
argument of perigee: 17.4031°
revolutions per day: 14.32499155
mean anomaly at epoch: 342.7963°
orbit number at epoch: 25064

The dashed part of the orbit path shows where the satellite is in the earth's shadow,  

DLR